Regional Weather Roundup
Issued by NWS Goodland, KS

Home | Current Version | Previous Version | Text Only | Print | Product List | Glossary Off
Versions: 1 2 3 4 5 6 7 8 9 10 11 12 13 14 15 16 17 18 19 20 21 22 23 24 25 26 27 28 29 30 31 32 33 34 35 36 37 38 39 40 41 42 43 44 45 46 47 48 49 50

000
ASUS43 KGLD 302308
RWRGLD

GOODLAND FORECAST AREA HOURLY WEATHER ROUNDUP
NATIONAL WEATHER SERVICE GOODLAND KS
500 PM MDT SAT AUG 30 2014

...OFFICIAL OBSERVATIONS...

CITY           SKY/WX    TMP DP  RH WIND       PRES   REMARKS
GOODLAND KS    SUNNY     89  46  22 S9        29.87F
HILL CITY KS   SUNNY     91  53  27 S15       29.85F
IMPERIAL NEB   SUNNY     89  49  25 S15       29.83F
MCCOOK NEB     SUNNY     91  54  28 S13       29.82F
AKRON CO       SUNNY     85  44  23 S13G25    29.89F
BURLINGTON CO  SUNNY     89  42  19 S10G20    29.90F
LIMON CO       SUNNY     84  40  21 S10       29.96F
$$

...UNOFFICIAL OBSERVATIONS...

CITY           SKY/WX    TMP DP  RH WIND       PRES   REMARKS
COLBY KS       SUNNY     88  57  35 SE16G24   29.87F
GOVE KS          N/A     90  32  12 CALM        N/A
NORTON KS      SUNNY     91  46  21 S15       29.84S
SHARON SPRINGS   N/A     91  50  24 S14         N/A
WAKEENEY KS      N/A     92  45  19 MISG        N/A
KIT CARSON CO    N/A     90  46  21 CALM        N/A
YUMA CO          N/A     87  41  19 S12         N/A
$$


USA.gov is the U.S. government's official web portal to all federal, state and local government web resources and services.